This demonstration page uses our WeatherBlox Daily Observations layout. Learn more.

Left ArrowRight Arrow

41.55636, -103.73856

Hourly Observations for April 23, 2018

Temp ( °F °C ) Dew Point ( °F °C ) Humidity (%) Winds ( mph kmh ) Pressure ( in mb ) Visibility ( mi km ) Precip ( " mm )
12:58 am 00:58 Clear 38 3.3 35 1.4 88 88 S 7 11 30.12 1020 10 16 N/A
1:58 am 01:58 Clear 37 2.6 35 1.4 92 92 S 9 15 30.11 1020 10 16 N/A
2:58 am 02:58 Clear 36 2.3 34 1.2 93 93 S 9 15 30.08 1019 10 16 N/A
3:58 am 03:58 Clear 33 0.6 32 -0.1 95 95 SSW 6 9 30.09 1019 10 16 N/A
4:58 am 04:58 Clear 34 1.3 33 0.4 94 94 S 8 13 30.08 1019 10 16 N/A
5:58 am 05:58 Clear 32 -0.1 31 -0.8 95 95 S 8 13 30.07 1018 9 14 N/A
6:58 am 06:58 Sunny 34 1.3 33 0.5 94 94 S 8 13 30.11 1020 10 16 N/A
7:58 am 07:58 Sunny 40 4.7 38 3.1 90 90 SSW 9 15 30.11 1020 10 16 N/A
8:58 am 08:58 Sunny 46 7.6 39 3.9 78 78 S 7 11 30.09 1019 10 16 N/A
9:58 am 09:58 Sunny 53 11.6 38 3.6 58 58 S 15 24 30.07 1018 10 16 N/A
10:58 am 10:58 Sunny 57 13.9 37 2.7 47 47 SSE 16 26 30.05 1018 10 16 N/A
11:58 am 11:58 Sunny 60 15.4 35 1.8 40 40 SSE 16 26 30.03 1017 10 16 N/A
12:58 pm 12:58 Sunny 64 17.5 35 1.7 35 35 SE 20 31 29.98 1015 10 16 N/A
1:58 pm 13:58 Sunny 64 17.5 33 0.7 32 32 SSE 18 30 29.97 1015 10 16 N/A
2:58 pm 14:58 Mostly Cloudy with Light Rain 61 16.3 40 4.3 45 45 SSW 14 22 30.04 1017 10 16 N/A
3:58 pm 15:58 Mostly Sunny 61 16.1 43 6.2 52 52 S 8 13 30.01 1016 10 16 0.05 1.27
4:58 pm 16:58 Mostly Cloudy with Light Showers 58 14.7 46 7.6 63 63 SSE 6 9 30.01 1016 10 16 N/A
5:58 pm 17:58 Cloudy with Showers 57 13.7 43 6.1 60 60 S 8 13 30.01 1016 10 16 0.02 0.51
6:58 pm 18:58 Cloudy with Showers and Nearby Thunderstorms 54 12.4 44 6.8 69 69 W 16 26 30.06 1018 8 13 0.05 1.27
7:58 pm 19:58 Cloudy with Showers 42 5.3 39 4.1 92 92 N 32 52 30.16 1021 6 10 0.18 4.57
8:58 pm 20:58 Cloudy 38 3.6 37 2.8 95 95 N 30 48 30.22 1023 10 16 0.01 0.25
9:58 pm 21:58 Mostly Cloudy 36 2.3 33 0.7 89 89 N 33 54 30.23 1024 10 16 N/A
10:58 pm 22:58 Mostly Cloudy 35 1.6 32 undefined 89 89 N 29 46 30.24 1024 10 16 N/A
11:58 pm 23:58 Cloudy 35 1.5 32 undefined 90 90 N 22 35 30.25 1025 10 16 N/A

Powered by AerisWeather